�������l�o���
Date,Time,MP-1(��Sv/h),MP-2(��Sv/h),MP-3(��Sv/h),MP-4(��Sv/h),MP-5(��Sv/h),MP-6(��Sv/h),MP-7(��Sv/h),MP-8(��Sv/h),����,����(m/s),���J
2023/08/23,00:00,0.547,0.824,0.506,1.013,0.747,0.328,0.580,0.537,��,7.9,��
2023/08/23,00:10,0.547,0.826,0.506,1.014,0.746,0.329,0.582,0.536,��,7.5,��
2023/08/23,00:20,0.548,0.826,0.506,1.013,0.747,0.326,0.582,0.535,��,8.1,��
2023/08/23,00:30,0.547,0.826,0.505,1.015,0.746,0.327,0.580,0.538,��,6.9,��
2023/08/23,00:40,0.547,0.825,0.504,1.015,0.746,0.327,0.581,0.536,��,6.6,��
2023/08/23,00:50,0.547,0.825,0.505,1.013,0.747,0.326,0.581,0.538,��,6.0,��
2023/08/23,01:00,0.547,0.824,0.504,1.015,0.748,0.327,0.581,0.537,��,7.5,��
2023/08/23,01:10,0.547,0.826,0.505,1.017,0.747,0.327,0.583,0.537,��,7.7,��
2023/08/23,01:20,0.545,0.825,0.505,1.013,0.747,0.328,0.582,0.537,��,6.6,��
2023/08/23,01:30,0.546,0.825,0.506,1.015,0.748,0.327,0.582,0.538,��,7.7,��
2023/08/23,01:40,0.548,0.825,0.506,1.013,0.746,0.328,0.581,0.539,��,7.5,��
2023/08/23,01:50,0.546,0.825,0.505,1.013,0.746,0.327,0.581,0.538,��,7.1,��
2023/08/23,02:00,0.548,0.825,0.505,1.014,0.748,0.327,0.581,0.538,��,7.3,��
2023/08/23,02:10,0.546,0.824,0.505,1.014,0.748,0.328,0.580,0.540,��,7.2,��
2023/08/23,02:20,0.546,0.824,0.505,1.014,0.747,0.327,0.583,0.538,��,6.9,��
2023/08/23,02:30,0.546,0.825,0.506,1.013,0.747,0.327,0.581,0.539,��,6.4,��
2023/08/23,02:40,0.547,0.825,0.506,1.014,0.749,0.327,0.582,0.538,��,6.9,��
2023/08/23,02:50,0.547,0.826,0.504,1.011,0.748,0.327,0.582,0.538,��,8.1,��
2023/08/23,03:00,0.547,0.827,0.506,1.015,0.748,0.325,0.582,0.539,��,10.0,��
2023/08/23,03:10,0.547,0.825,0.505,1.014,0.745,0.328,0.581,0.540,��,8.8,��
2023/08/23,03:20,0.548,0.825,0.506,1.014,0.747,0.326,0.583,0.539,��,8.6,��
2023/08/23,03:30,0.547,0.824,0.505,1.012,0.746,0.326,0.582,0.538,��,7.5,��
2023/08/23,03:40,0.547,0.826,0.505,1.016,0.747,0.328,0.584,0.538,��,7.9,��
2023/08/23,03:50,0.546,0.825,0.504,1.015,0.747,0.328,0.582,0.539,��,7.3,��
2023/08/23,04:00,0.549,0.826,0.505,1.013,0.747,0.328,0.582,0.539,��,7.1,��
2023/08/23,04:10,0.548,0.825,0.505,1.013,0.747,0.327,0.583,0.538,��,7.3,��
2023/08/23,04:20,0.546,0.825,0.505,1.013,0.746,0.325,0.582,0.537,��,7.5,��
2023/08/23,04:30,0.548,0.824,0.505,1.014,0.747,0.327,0.581,0.538,��,8.0,��
2023/08/23,04:40,0.546,0.826,0.507,1.012,0.749,0.327,0.582,0.538,��,9.0,�L
2023/08/23,04:50,0.546,0.824,0.506,1.016,0.748,0.328,0.582,0.539,��,7.6,�L
2023/08/23,05:00,0.548,0.825,0.505,1.013,0.746,0.327,0.582,0.538,��,7.5,��
2023/08/23,05:10,0.546,0.825,0.506,1.012,0.747,0.326,0.582,0.539,��,7.6,��
2023/08/23,05:20,0.547,0.826,0.506,1.012,0.747,0.327,0.581,0.539,��,8.5,��
2023/08/23,05:30,0.547,0.827,0.504,1.013,0.747,0.328,0.582,0.537,��,7.7,��
2023/08/23,05:40,0.546,0.825,0.505,1.015,0.747,0.326,0.582,0.539,��,7.4,�L
2023/08/23,05:50,0.547,0.825,0.506,1.011,0.746,0.327,0.582,0.537,��,6.9,��
2023/08/23,06:00,0.547,0.827,0.505,1.015,0.749,0.325,0.583,0.539,��,5.8,��
2023/08/23,06:10,0.547,0.824,0.506,1.016,0.748,0.326,0.581,0.538,��,6.3,��
2023/08/23,06:20,0.546,0.825,0.504,1.013,0.748,0.327,0.581,0.539,��,4.9,��
2023/08/23,06:30,0.546,0.824,0.506,1.013,0.747,0.327,0.580,0.539,��,5.3,��
2023/08/23,06:40,0.549,0.825,0.505,1.014,0.748,0.327,0.584,0.539,��,5.3,��
2023/08/23,06:50,0.548,0.826,0.507,1.016,0.747,0.327,0.581,0.537,��,7.3,��
2023/08/23,07:00,0.547,0.826,0.505,1.015,0.746,0.327,0.583,0.537,��,5.4,��
2023/08/23,07:10,0.547,0.825,0.505,1.015,0.748,0.326,0.582,0.538,��,6.5,��
2023/08/23,07:20,0.548,0.825,0.507,1.016,0.749,0.327,0.582,0.537,��,6.4,��
2023/08/23,07:30,0.546,0.826,0.507,1.016,0.746,0.326,0.582,0.539,��,6.7,��
2023/08/23,07:40,0.547,0.823,0.504,1.014,0.747,0.327,0.581,0.537,��쓌,7.1,��
2023/08/23,07:50,0.548,0.825,0.506,1.016,0.745,0.328,0.583,0.539,��쓌,7.5,��
2023/08/23,08:00,0.547,0.824,0.506,1.014,0.746,0.327,0.582,0.538,��쓌,8.6,��
2023/08/23,08:10,0.546,0.827,0.505,1.015,0.747,0.327,0.583,0.537,��쓌,8.9,�L
2023/08/23,08:20,0.546,0.825,0.504,1.014,0.746,0.327,0.583,0.539,��쓌,8.2,�L
2023/08/23,08:30,0.547,0.825,0.506,1.016,0.747,0.327,0.581,0.538,��,7.7,��
2023/08/23,08:40,0.549,0.829,0.505,1.016,0.748,0.327,0.582,0.539,��,6.6,�L
2023/08/23,08:50,0.546,0.827,0.506,1.016,0.746,0.327,0.582,0.538,��,5.8,�L
2023/08/23,09:00,0.545,0.827,0.507,1.016,0.748,0.327,0.583,0.537,��쓌,8.9,�L
2023/08/23,09:10,0.546,0.827,0.507,1.016,0.748,0.327,0.583,0.539,��,7.1,�L
2023/08/23,09:20,0.547,0.826,0.507,1.017,0.749,0.327,0.583,0.538,��쓌,9.1,��
2023/08/23,09:30,0.547,0.825,0.505,1.017,0.749,0.327,0.583,0.537,��쓌,8.4,��
2023/08/23,09:40,0.547,0.825,0.505,1.016,0.748,0.328,0.582,0.536,��쓌,8.4,�L
2023/08/23,09:50,0.547,0.829,0.506,1.017,0.748,0.327,0.582,0.537,��쓌,8.6,�L
2023/08/23,10:00,0.546,0.825,0.506,1.015,0.745,0.326,0.583,0.538,��쓌,10.2,�L
2023/08/23,10:10,0.548,0.825,0.505,1.016,0.748,0.326,0.581,0.536,��쓌,9.5,�L
2023/08/23,10:20,0.545,0.825,0.506,1.015,0.748,0.326,0.581,0.535,��,7.8,�L
2023/08/23,10:30,0.545,0.825,0.507,1.018,0.751,0.327,0.582,0.535,��,8.2,�L
2023/08/23,10:40,0.545,0.826,0.504,1.018,0.751,0.325,0.581,0.536,��,8.3,��
2023/08/23,10:50,0.547,0.825,0.503,1.018,0.751,0.326,0.582,0.536,��쓌,7.6,��
2023/08/23,11:00,0.547,0.825,0.505,1.018,0.749,0.325,0.582,0.535,��쓌,7.7,�L
2023/08/23,11:10,0.543,0.817,0.501,1.012,0.738,0.324,0.578,0.536,��,6.3,�L
2023/08/23,11:20,0.544,0.815,0.499,1.011,0.738,0.325,0.578,0.535,��쓌,6.8,��
2023/08/23,11:30,0.545,0.816,0.504,1.016,0.739,0.324,0.578,0.536,��쓌,8.0,��
2023/08/23,11:40,0.545,0.820,0.501,1.012,0.738,0.323,0.580,0.537,��쓌,7.8,�L
2023/08/23,11:50,0.545,0.820,0.504,1.013,0.737,0.323,0.579,0.535,��쓌,9.0,��
2023/08/23,12:00,0.546,0.819,0.501,1.015,0.736,0.323,0.578,0.536,��쓌,8.1,�L
2023/08/23,12:10,0.542,0.815,0.499,1.013,0.736,0.324,0.578,0.535,��쓌,7.1,�L
2023/08/23,12:20,0.542,0.815,0.499,1.012,0.737,0.324,0.580,0.534,��쓌,8.8,�L
2023/08/23,12:30,0.541,0.814,0.500,1.012,0.738,0.323,0.579,0.536,��쓌,8.8,�L
2023/08/23,12:40,0.542,0.818,0.502,1.011,0.738,0.323,0.577,0.535,��,9.0,�L
2023/08/23,12:50,0.542,0.820,0.502,1.012,0.739,0.324,0.578,0.534,��쓌,8.5,��
2023/08/23,13:00,0.541,0.818,0.503,1.009,0.738,0.325,0.579,0.535,��쓌,10.2,��
2023/08/23,13:10,0.543,0.820,0.503,1.013,0.739,0.323,0.578,0.535,��쓌,9.7,��
2023/08/23,13:20,0.544,0.819,0.503,1.013,0.740,0.324,0.577,0.537,��쓌,12.5,��
2023/08/23,13:30,0.544,0.819,0.505,1.012,0.741,0.325,0.579,0.535,��쓌,11.3,��
2023/08/23,13:40,0.545,0.822,0.503,1.016,0.741,0.325,0.581,0.537,��쓌,11.6,��
2023/08/23,13:50,0.545,0.822,0.504,1.012,0.742,0.326,0.579,0.537,��쓌,13.0,��
2023/08/23,14:00,0.544,0.820,0.504,1.013,0.742,0.325,0.581,0.537,��쓌,12.4,��
2023/08/23,14:10,0.546,0.822,0.504,1.014,0.744,0.326,0.578,0.538,��쓌,12.8,��
2023/08/23,14:20,0.547,0.822,0.503,1.014,0.742,0.325,0.579,0.538,��쓌,11.3,��
2023/08/23,14:30,0.545,0.822,0.504,1.014,0.742,0.326,0.579,0.539,��쓌,10.8,��
2023/08/23,14:40,0.547,0.823,0.505,1.015,0.743,0.325,0.580,0.539,��쓌,13.0,��
2023/08/23,14:50,0.545,0.824,0.505,1.012,0.743,0.325,0.580,0.537,��쓌,12.7,��
2023/08/23,15:00,0.546,0.821,0.505,1.014,0.745,0.326,0.581,0.538,��쓌,12.0,��
2023/08/23,15:10,0.545,0.826,0.505,1.013,0.745,0.324,0.582,0.536,��쓌,12.0,��
2023/08/23,15:20,0.544,0.823,0.504,1.014,0.745,0.324,0.583,0.537,��쓌,10.7,��
2023/08/23,15:30,0.544,0.824,0.503,1.014,0.746,0.324,0.582,0.537,��쓌,10.2,��
2023/08/23,15:40,0.545,0.823,0.504,1.013,0.745,0.324,0.582,0.538,��쓌,12.5,��
2023/08/23,15:50,0.546,0.824,0.503,1.015,0.747,0.324,0.582,0.538,��쓌,11.1,��
2023/08/23,16:00,0.546,0.825,0.505,1.014,0.744,0.325,0.581,0.536,��쓌,10.0,��
2023/08/23,16:10,0.546,0.824,0.504,1.015,0.744,0.324,0.581,0.537,��쓌,10.9,��
2023/08/23,16:20,0.546,0.825,0.506,1.014,0.744,0.327,0.581,0.536,��쓌,10.8,��
2023/08/23,16:30,0.545,0.825,0.506,1.014,0.746,0.325,0.581,0.537,��쓌,10.7,��
2023/08/23,16:40,0.547,0.826,0.506,1.014,0.744,0.325,0.582,0.537,��쓌,10.5,��
2023/08/23,16:50,0.547,0.824,0.506,1.015,0.744,0.326,0.581,0.536,��쓌,9.9,��
2023/08/23,17:00,0.546,0.825,0.506,1.018,0.743,0.326,0.580,0.538,��쓌,9.6,��
2023/08/23,17:10,0.544,0.826,0.505,1.016,0.745,0.326,0.580,0.536,��,9.2,��
2023/08/23,17:20,0.546,0.825,0.505,1.016,0.745,0.326,0.580,0.537,��,9.5,��
2023/08/23,17:30,0.546,0.824,0.505,1.017,0.743,0.327,0.581,0.536,��쓌,9.1,��
2023/08/23,17:40,0.545,0.825,0.505,1.016,0.744,0.325,0.580,0.536,��,6.4,��
2023/08/23,17:50,0.545,0.825,0.504,1.017,0.744,0.326,0.580,0.536,��,7.0,��
2023/08/23,18:00,0.547,0.827,0.504,1.013,0.746,0.325,0.580,0.538,��쓌,7.8,��
2023/08/23,18:10,0.545,0.826,0.505,1.015,0.743,0.325,0.581,0.537,��,9.0,��
2023/08/23,18:20,0.546,0.824,0.505,1.016,0.745,0.327,0.581,0.538,��,7.0,��
2023/08/23,18:30,0.545,0.824,0.504,1.015,0.744,0.325,0.580,0.538,��,8.0,��
2023/08/23,18:40,0.546,0.822,0.505,1.016,0.745,0.324,0.580,0.538,��,7.5,��
2023/08/23,18:50,0.546,0.823,0.506,1.016,0.745,0.325,0.581,0.537,��,6.9,��
2023/08/23,19:00,0.547,0.826,0.506,1.013,0.744,0.326,0.579,0.538,��쓌,7.3,��
2023/08/23,19:10,0.547,0.826,0.504,1.014,0.744,0.327,0.581,0.537,��,7.7,��
2023/08/23,19:20,0.548,0.825,0.505,1.016,0.744,0.325,0.581,0.535,��,7.8,��
2023/08/23,19:30,0.548,0.826,0.505,1.017,0.745,0.326,0.580,0.538,��쓌,7.7,��
2023/08/23,19:40,0.547,0.829,0.505,1.014,0.747,0.326,0.579,0.538,��,7.7,��
2023/08/23,19:50,0.546,0.826,0.506,1.016,0.745,0.326,0.580,0.538,��,8.6,��
2023/08/23,20:00,0.548,0.824,0.505,1.014,0.744,0.326,0.579,0.537,��쓌,8.5,��
2023/08/23,20:10,0.546,0.826,0.506,1.015,0.747,0.325,0.580,0.537,��,8.5,��
2023/08/23,20:20,0.546,0.827,0.506,1.017,0.744,0.328,0.581,0.536,��쓌,8.2,��
2023/08/23,20:30,0.548,0.827,0.505,1.016,0.746,0.325,0.580,0.537,��,7.7,��
2023/08/23,20:40,0.547,0.828,0.507,1.015,0.746,0.327,0.581,0.537,��,7.1,��
2023/08/23,20:50,0.548,0.826,0.505,1.015,0.747,0.326,0.581,0.537,��,6.7,��
2023/08/23,21:00,0.547,0.825,0.506,1.017,0.745,0.327,0.579,0.537,��,7.5,��
2023/08/23,21:10,0.546,0.826,0.505,1.016,0.746,0.327,0.581,0.537,��,8.8,��
2023/08/23,21:20,0.547,0.826,0.506,1.016,0.744,0.325,0.582,0.539,��,7.4,��
2023/08/23,21:30,0.549,0.825,0.506,1.018,0.745,0.326,0.582,0.538,��,8.0,��
2023/08/23,21:40,0.548,0.827,0.504,1.017,0.744,0.326,0.582,0.536,��,6.7,��
2023/08/23,21:50,0.548,0.825,0.506,1.014,0.746,0.326,0.580,0.537,��,7.4,��
2023/08/23,22:00,0.547,0.825,0.507,1.018,0.744,0.327,0.581,0.539,��,7.0,��
2023/08/23,22:10,0.547,0.826,0.506,1.016,0.745,0.328,0.581,0.537,��쓌,8.3,��
2023/08/23,22:20,0.547,0.827,0.507,1.017,0.745,0.326,0.582,0.538,��,8.1,��
2023/08/23,22:30,0.548,0.824,0.506,1.018,0.745,0.326,0.581,0.538,��,8.7,��
2023/08/23,22:40,0.547,0.825,0.507,1.016,0.745,0.327,0.582,0.539,��,7.6,��
2023/08/23,22:50,0.549,0.825,0.506,1.019,0.745,0.326,0.581,0.538,��,7.4,��
2023/08/23,23:00,0.548,0.827,0.504,1.019,0.744,0.327,0.582,0.538,��,7.9,��
2023/08/23,23:10,0.547,0.826,0.507,1.016,0.747,0.326,0.580,0.538,��,7.4,��
2023/08/23,23:20,0.547,0.827,0.505,1.017,0.745,0.327,0.581,0.537,��,7.7,��
2023/08/23,23:30,0.547,0.826,0.506,1.017,0.746,0.326,0.583,0.536,��,8.2,��
2023/08/23,23:40,0.548,0.826,0.506,1.016,0.746,0.326,0.582,0.539,��,6.7,��
2023/08/23,23:50,0.545,0.827,0.506,1.016,0.746,0.328,0.580,0.539,��,7.8,��
